sat.trackr.live / text

‹ back to catalog

DRUMS

NORAD 49401 · 2021-102G

PAYLOAD ACTIVE UNKNOWN

§ Identity

Operator
Country
JPN
Launch date
2021-11-09
Launch site
KSCUT
Launch vehicle
Mass (kg)
RCS (m²)

External: N2YO · Heavens-Above · Gunter

§ Orbital elements

Epoch: 2026-05-25T02:30:48.760992Z

Period
94.72 min
Inclination
97.3311°
Eccentricity
0.0013803
Mean motion
15.20228359 rev/d
Perigee alt
495.7 km
Apogee alt
514.7 km
Semi-major
6,883.3 km
B*
2.1583e-4
RAAN
182.8346°
Arg perigee
318.2748°
Mean anomaly
41.7434°
Rev number
25,007

§ Raw data

DRUMS1 49401U 21102G   26145.10473103  .00004623  00000+0  21583-3 0  99972 49401  97.3311 182.8346 0013803 318.2748  41.7434 15.20228359250078

JSON: /api/v1/satellites/49401 · /tle

For live sub-satellite position, see the globe view (requires WebGL).

§ Visibility from observer

Set your observer location to see the next 7 days of passes ≥ 10°. The values pass through the URL so the page stays shareable.

No JS? Fill the form by hand. The geolocation button needs JavaScript.